Zurück zum Katalog

FENGYUN 1C DEB

AktivSSO
NORAD 31025·DEBRIS·🇨🇳 China

Gestartet May 10, 1999 von Taiyuan Satellite Launch Center

Loading…

Nächste Überflüge (nächste 24 Stunden)

TLE

AktuellSource: Space-Track

Epoche: Sep 13, 2026, 16:41 UTC

1 31025U 99025BDT 26256.69534816  .00000769  00000-0  32331-3 0  9996
2 31025  98.6014 244.4847 0170233 296.2251  62.1514 14.21212211682706

Verfolge FENGYUN 1C DEB in Echtzeit mit AllMySat

Download on the App Store